DL5ARK Weather Reports


Display with metric or nautical units.
time (UTC)temp
F
wind
direction
speed
MPH
gust
MPH
rain 1hr
in
rain 24hr
in
rain mn
in
humidity
%
barometer
mb
20260506092750 61 225 2.0 2.0 0.00 0.00 0.02 72 992.9
20260506092447 61 270 3.0 3.0 0.00 0.00 0.02 71 992.9
20260506092148 62 270 1.0 1.0 0.00 0.00 0.02 72 992.9
20260506091847 61 180 2.0 2.0 0.00 0.00 0.02 72 993.1
20260506091548 61 337 7.0 7.0 0.00 0.00 0.02 72 993.1
20260506091248 61 225 5.0 6.0 0.00 0.00 0.02 73 993.1
20260506090948 62 337 3.0 3.0 0.00 0.00 0.02 73 993.1
20260506090647 61 270 8.0 8.0 0.00 0.00 0.02 73 992.9
20260506090348 61 225 4.0 4.0 0.00 0.00 0.02 75 992.9
20260506090047 61 202 8.0 8.0 0.00 0.00 0.02 77 992.9
20260506085748 60 225 6.0 6.0 0.00 0.00 0.02 75 992.9
20260506085148 60 247 4.0 4.0 0.00 0.00 0.02 75 992.9
20260506084847 60 225 4.0 4.0 0.00 0.00 0.02 75 992.9
20260506084547 61 270 4.0 4.0 0.00 0.00 0.02 75 992.6
20260506084248 61 315 3.0 4.0 0.00 0.00 0.02 75 992.9
20260506083947 60 247 4.0 4.0 0.00 0.00 0.02 75 992.9
20260506083347 60 337 7.0 7.0 0.00 0.00 0.02 75 992.6
20260506083047 61 270 8.0 8.0 0.00 0.00 0.02 79 992.6
20260506082747 61 270 4.0 4.0 0.00 0.00 0.02 80 992.6
20260506082448 60 225 5.0 5.0 0.00 0.00 0.02 80 992.6
20260506082148 60 225 6.0 6.0 0.00 0.00 0.02 81 992.6
20260506081850 59 247 4.0 4.0 0.00 0.00 0.02 80 992.6
20260506081547 59 270 8.0 8.0 0.00 0.00 0.02 81 992.9
20260506081247 59 225 3.0 3.0 0.00 0.00 0.02 82 992.9
20260506080948 58 337 4.0 4.0 0.00 0.00 0.02 81 992.6
20260506080647 58 337 6.0 6.0 0.00 0.00 0.02 81 992.6
20260506080350 58 225 6.0 6.0 0.00 0.00 0.02 81 992.6
20260506073347 59 270 1.0 1.0 0.00 0.00 0.02 85 992.4
20260506073048 58 292 1.0 1.0 0.00 0.00 0.02 85 992.6
20260506072446 57 225 7.0 7.0 0.00 0.00 0.02 86 992.4
20260506072147 57 225 4.0 4.0 0.00 0.00 0.02 86 992.4
20260506071848 57 180 4.0 4.0 0.00 0.00 0.02 86 992.4
20260506071548 56 337 2.0 2.0 0.00 0.00 0.02 85 992.4
20260506071247 57 337 3.0 3.0 0.00 0.00 0.02 86 992.4
20260506070948 57 292 3.0 3.0 0.00 0.00 0.02 86 992.4
20260506070647 57 225 1.0 1.0 0.00 0.00 0.02 86 992.4
20260506070347 56 180 2.0 2.0 0.00 0.00 0.02 87 992.4
20260506062448 55 202 1.0 1.0 0.00 0.00 0.02 87 992.6
20260506062148 54 270 1.0 1.0 0.00 0.00 0.02 87 992.6
20260506061847 54 202 1.0 1.0 0.00 0.00 0.02 87 992.6
20260506061548 54 180 0.0 0.0 0.00 0.00 0.02 86 992.6
20260506061247 54 225 2.0 2.0 0.00 0.00 0.02 87 992.6
20260506060948 54 270 4.0 4.0 0.00 0.00 0.02 86 992.6
20260506060648 54 225 4.0 4.0 0.00 0.00 0.02 86 992.6
20260506060350 54 270 1.0 1.0 0.00 0.00 0.02 87 992.6
20260506051247 53 225 4.0 4.0 0.00 0.00 0.02 88 992.6
20260506050950 53 180 2.0 2.0 0.00 0.00 0.02 87 992.9
20260506050648 53 202 8.0 8.0 0.00 0.00 0.02 88 992.6
20260506050347 53 337 3.0 3.0 0.00 0.00 0.02 87 992.6
20260506044848 53 202 1.0 1.0 0.00 0.00 0.02 88 992.9
20260506044548 53 270 3.0 3.0 0.00 0.00 0.02 88 992.9
20260506043648 53 225 2.0 2.0 0.00 0.00 0.02 88 992.4
20260506043348 53 315 1.0 1.0 0.00 0.00 0.02 88 992.4
20260506043048 53 337 1.0 1.0 0.00 0.00 0.02 88 992.4
20260506042748 53 337 1.0 1.0 0.00 0.00 0.02 88 992.4
20260506042450 53 270 1.0 1.0 0.00 0.00 0.02 88 992.4
20260506042147 53 270 2.0 2.0 0.00 0.00 0.02 88 992.4
20260506041847 53 225 2.0 2.0 0.00 0.00 0.02 88 992.4
20260506041546 53 270 3.0 3.0 0.00 0.00 0.02 88 992.4
20260506041248 53 247 2.0 2.0 0.00 0.00 0.02 88 992.4
20260506040947 53 337 4.0 4.0 0.00 0.00 0.02 88 992.4
20260506040650 53 337 5.0 5.0 0.00 0.00 0.02 88 992.4
20260506040347 53 225 4.0 4.0 0.00 0.00 0.02 88 992.4
20260506040048 53 225 9.0 9.0 0.00 0.00 0.02 88 992.4
20260506035748 53 225 1.0 1.0 0.00 0.00 0.02 88 992.4
20260506035448 53 225 3.0 4.0 0.00 0.00 0.02 89 992.4
20260506035148 53 225 5.0 6.0 0.00 0.00 0.02 88 992.4
20260506034850 53 202 2.0 2.0 0.00 0.00 0.02 88 992.4
20260506034546 53 225 2.0 2.0 0.00 0.00 0.02 88 992.1
20260506034248 53 225 4.0 4.0 0.00 0.00 0.02 88 992.1
20260506033947 53 337 1.0 1.0 0.00 0.00 0.02 88 992.1
20260506033647 53 225 4.0 4.0 0.00 0.00 0.02 88 992.4
20260506033347 53 337 3.0 3.0 0.00 0.00 0.02 88 992.1
20260506033048 53 180 3.0 3.0 0.00 0.00 0.02 88 992.1
20260506032747 53 270 4.0 4.0 0.00 0.00 0.02 89 992.1
20260506032447 53 225 1.0 1.0 0.00 0.00 0.02 88 992.4
20260506032147 53 225 3.0 3.0 0.00 0.00 0.02 89 992.1
20260506031847 53 337 4.0 4.0 0.00 0.00 0.02 88 992.1
20260506031548 53 225 7.0 7.0 0.00 0.00 0.02 88 992.1
20260506030946 53 202 2.0 2.0 0.00 0.00 0.02 89 992.1
20260506030647 53 247 4.0 4.0 0.00 0.00 0.02 88 992.1
20260506030348 53 225 4.0 4.0 0.00 0.00 0.02 88 992.4
20260506030048 53 225 3.0 3.0 0.00 0.00 0.02 88 992.4
20260506025447 53 225 5.0 5.0 0.00 0.00 0.02 88 992.4
20260506025147 53 180 2.0 2.0 0.00 0.00 0.02 88 992.4
20260506024848 53 225 1.0 2.0 0.00 0.00 0.02 88 992.4
20260506024547 53 225 3.0 3.0 0.00 0.00 0.02 88 992.4
20260506024248 53 270 3.0 3.0 0.00 0.00 0.02 88 992.4
20260506023947 53 225 3.0 3.0 0.00 0.00 0.02 88 992.4
20260506023648 53 180 1.0 1.0 0.00 0.00 0.02 88 992.4
20260506023348 53 225 2.0 2.0 0.00 0.00 0.02 88 992.4
20260506023048 53 270 3.0 3.0 0.00 0.00 0.02 88 992.4
20260506022747 53 337 3.0 3.0 0.00 0.00 0.02 88 992.4
20260506022148 53 225 3.0 3.0 0.00 0.00 0.00 88 992.4
20260506021847 53 225 4.0 4.0 0.00 0.00 0.00 88 992.4
20260506021548 53 180 1.0 1.0 0.00 0.00 0.00 88 992.4
20260506021247 53 337 1.0 2.0 0.00 0.00 0.00 88 992.4
20260506020947 53 337 2.0 2.0 0.00 0.00 0.00 88 992.4
20260506020650 53 225 1.0 1.0 0.00 0.00 0.00 88 992.4
20260506020348 53 225 2.0 2.0 0.00 0.00 0.00 88 992.4
20260506020047 53 225 1.0 2.0 0.00 0.00 0.00 88 992.4
20260506015748 53 270 0.0 0.0 0.00 0.00 0.00 88 992.4
20260506015448 53 225 1.0 1.0 0.00 0.00 0.00 88 992.4
20260506015147 53 337 2.0 2.0 0.00 0.00 0.00 88 992.4
20260506014847 53 180 2.0 2.0 0.00 0.00 0.00 88 992.6
20260506014548 53 225 1.0 1.0 0.00 0.00 0.00 88 992.6
20260506014248 53 337 3.0 3.0 0.00 0.00 0.00 88 992.6
20260506013947 53 270 1.0 1.0 0.00 0.00 0.00 88 992.6
20260506013647 53 337 7.0 7.0 0.00 0.00 0.00 88 992.9
20260506013350 53 202 5.0 5.0 0.00 0.00 0.00 87 992.9
20260506013048 53 225 1.0 2.0 0.00 0.00 0.00 88 992.6
20260506012747 53 202 3.0 3.0 0.00 0.00 0.00 88 992.6
20260506012446 53 180 4.0 4.0 0.00 0.00 0.00 88 992.9
20260506012148 53 337 6.0 6.0 0.00 0.00 0.00 88 992.9
20260506011847 53 225 3.0 3.0 0.00 0.00 0.00 88 992.9
20260506011246 53 180 2.0 2.0 0.00 0.00 0.00 87 992.9
20260506010947 53 202 4.0 4.0 0.00 0.00 0.00 88 992.9
20260506010647 53 225 3.0 3.0 0.00 0.00 0.00 88 992.9
20260506010347 53 225 3.0 3.0 0.00 0.00 0.00 88 992.9
20260506010047 53 225 4.0 4.0 0.00 0.00 0.00 88 992.9
20260506005750 53 337 2.0 2.0 0.00 0.00 0.00 88 992.9
20260506005448 53 202 3.0 3.0 0.00 0.00 0.00 88 992.9
20260506005147 53 202 2.0 2.0 0.00 0.00 0.00 88 992.9
20260506004847 53 202 3.0 3.0 0.00 0.00 0.00 88 992.9
20260506004547 53 337 2.0 2.0 0.00 0.00 0.00 87 992.9
20260506004247 53 225 4.0 4.0 0.00 0.00 0.00 87 992.9
20260506003948 53 225 0.0 0.0 0.00 0.00 0.00 87 992.9
20260506003648 53 225 2.0 2.0 0.00 0.00 0.00 87 992.9
20260506003348 53 225 3.0 3.0 0.00 0.00 0.00 87 992.9
20260506003048 53 337 1.0 1.0 0.00 0.00 0.00 87 993.1
20260506002748 53 225 2.0 2.0 0.00 0.00 0.00 87 993.1
20260506002147 53 225 2.0 2.0 0.00 0.00 0.00 87 993.1
20260506001847 53 247 3.0 3.0 0.00 0.00 0.00 87 993.1
20260506001547 53 225 3.0 3.0 0.00 0.00 0.00 87 993.4
20260506001247 53 180 2.0 2.0 0.00 0.00 0.00 87 993.4
20260506000947 53 180 1.0 1.0 0.00 0.00 0.00 87 993.4
20260506000650 53 180 1.0 2.0 0.00 0.00 0.00 87 993.1
20260506000347 53 225 2.0 2.0 0.00 0.00 0.00 87 993.4
20260506000047 53 225 2.0 2.0 0.00 0.00 0.00 86 993.1
20260505235747 53 202 2.0 2.0 0.00 0.00 0.00 86 993.4
20260505235448 53 180 2.0 2.0 0.00 0.00 0.00 87 993.4
20260505235147 53 202 2.0 2.0 0.00 0.00 0.00 86 993.4
20260505234848 53 337 2.0 2.0 0.00 0.00 0.00 87 993.4
20260505234548 53 202 3.0 3.0 0.00 0.00 0.00 87 993.4
20260505234247 53 202 3.0 3.0 0.00 0.00 0.00 86 993.4
20260505233948 53 337 2.0 2.0 0.00 0.00 0.00 86 993.4
20260505233647 53 180 1.0 1.0 0.00 0.00 0.00 86 993.4
20260505233350 53 180 1.0 2.0 0.00 0.00 0.00 86 993.4
20260505233048 53 180 1.0 1.0 0.00 0.00 0.00 86 993.4
20260505232748 53 180 3.0 3.0 0.00 0.00 0.00 86 993.4
20260505232448 53 180 4.0 4.0 0.00 0.00 0.00 86 993.4
20260505232147 53 337 2.0 2.0 0.00 0.00 0.00 86 993.4
20260505231848 53 225 5.0 5.0 0.00 0.00 0.00 85 993.4
20260505231548 53 180 2.0 2.0 0.00 0.00 0.00 85 993.4
20260505231248 53 202 3.0 3.0 0.00 0.00 0.00 85 993.4
20260505230947 53 202 4.0 4.0 0.00 0.00 0.00 85 993.4
20260505230647 53 225 3.0 4.0 0.00 0.00 0.00 85 993.1
20260505230048 53 225 0.0 0.0 0.00 0.00 0.00 85 992.9
20260505225748 53 225 0.0 0.0 0.00 0.00 0.00 85 992.9
20260505225448 53 247 2.0 2.0 0.00 0.00 0.00 85 992.9
20260505225147 53 247 1.0 1.0 0.00 0.00 0.00 85 992.9
20260505224848 53 225 2.0 2.0 0.00 0.00 0.00 86 992.9
20260505224247 53 247 1.0 1.0 0.00 0.00 0.00 85 993.1
20260505223948 53 337 4.0 4.0 0.00 0.00 0.00 85 992.9
20260505223647 53 225 2.0 2.0 0.00 0.00 0.00 85 992.9
20260505223347 53 202 1.0 1.0 0.00 0.00 0.00 85 993.1
20260505223046 53 225 1.0 1.0 0.00 0.00 0.00 85 993.1
20260505222448 53 225 1.0 1.0 0.00 0.00 0.00 85 992.9
20260505222147 53 225 1.0 1.0 0.00 0.00 0.00 85 992.9
20260505221847 53 270 2.0 2.0 0.00 0.00 0.00 84 993.1
20260505221547 53 270 1.0 1.0 0.00 0.00 0.00 85 993.4
20260505221247 53 225 2.0 2.0 0.00 0.00 0.00 85 993.4
20260505220948 53 225 7.0 7.0 0.00 0.00 0.00 84 993.4
20260505220647 53 270 3.0 3.0 0.00 0.00 0.00 85 993.1
20260505220348 53 337 4.0 4.0 0.00 0.00 0.00 85 993.1
20260505220047 54 337 5.0 5.0 0.00 0.00 0.00 84 993.4
20260505215748 54 225 2.0 2.0 0.00 0.00 0.74 84 993.4
20260505215450 54 225 3.0 3.0 0.00 0.00 0.74 85 993.4
20260505215148 54 180 2.0 2.0 0.00 0.00 0.74 84 993.4
20260505214848 54 225 0.0 0.0 0.00 0.00 0.74 84 993.4
20260505214547 54 202 1.0 2.0 0.00 0.00 0.74 84 993.4
20260505214247 54 180 2.0 2.0 0.00 0.00 0.74 84 993.4
20260505213948 54 225 2.0 2.0 0.00 0.00 0.74 83 993.4
20260505213650 54 202 1.0 1.0 0.00 0.00 0.74 83 993.4
20260505213350 54 337 1.0 1.0 0.00 0.00 0.74 83 993.4
20260505213047 54 225 1.0 1.0 0.00 0.00 0.74 83 993.4
20260505212747 53 180 1.0 1.0 0.00 0.00 0.74 82 993.4
20260505212446 54 202 1.0 1.0 0.00 0.00 0.74 82 993.4
20260505212147 54 0 0.0 0.0 0.00 0.00 0.74 83 993.4
20260505211849 54 0 0.0 0.0 0.00 0.00 0.74 83 993.4
20260505211547 54 0 0.0 0.0 0.00 0.00 0.74 82 993.4
20260505211248 54 0 0.0 0.0 0.00 0.00 0.74 82 993.4
20260505210947 54 315 0.0 0.0 0.00 0.00 0.74 82 993.4
20260505210648 54 270 0.0 0.0 0.00 0.00 0.74 82 993.4
20260505210350 54 270 0.0 0.0 0.00 0.00 0.74 82 993.6
20260505210048 54 270 1.0 1.0 0.00 0.00 0.74 82 993.6
20260505205748 54 315 0.0 0.0 0.00 0.00 0.74 83 993.4
20260505205448 54 225 0.0 0.0 0.00 0.00 0.74 83 993.6
20260505205147 54 225 2.0 2.0 0.00 0.00 0.74 83 993.6
20260505204848 54 225 0.0 0.0 0.00 0.00 0.74 82 993.6
20260505204550 54 180 0.0 0.0 0.00 0.00 0.74 82 993.9
20260505204248 53 180 1.0 1.0 0.00 0.00 0.74 82 993.6
20260505203947 53 180 2.0 2.0 0.00 0.00 0.74 82 993.6
20260505203647 54 202 1.0 1.0 0.00 0.00 0.74 81 993.6
20260505203348 54 225 0.0 0.0 0.00 0.00 0.74 81 993.6
20260505203048 54 202 0.0 0.0 0.00 0.00 0.74 81 993.6
20260505202750 54 270 1.0 1.0 0.00 0.00 0.74 82 993.6
20260505202448 54 225 1.0 1.0 0.00 0.00 0.74 81 993.6
20260505202148 54 225 1.0 1.0 0.00 0.00 0.74 81 993.4
20260505201847 54 337 1.0 1.0 0.00 0.00 0.74 81 993.6
20260505201547 54 225 1.0 1.0 0.00 0.00 0.74 82 993.4
20260505201248 54 337 0.0 0.0 0.00 0.00 0.74 82 993.4
20260505200947 54 270 0.0 0.0 0.00 0.00 0.74 82 993.4
20260505200648 54 225 0.0 0.0 0.00 0.00 0.74 81 993.4
20260505200348 54 337 2.0 2.0 0.00 0.00 0.74 82 993.4
20260505200048 54 225 1.0 1.0 0.00 0.00 0.74 81 993.4
20260505195747 54 270 1.0 1.0 0.00 0.00 0.74 81 993.4
20260505195450 54 270 1.0 1.0 0.00 0.00 0.74 81 993.4
20260505195148 54 270 1.0 1.0 0.00 0.00 0.74 81 993.4
20260505194847 54 202 2.0 2.0 0.00 0.00 0.74 81 993.4
20260505194547 54 270 2.0 2.0 0.00 0.00 0.74 80 993.4
20260505194247 54 202 2.0 2.0 0.00 0.00 0.74 80 993.4
20260505193947 54 225 2.0 2.0 0.00 0.00 0.74 81 993.4
20260505193647 54 337 3.0 4.0 0.00 0.00 0.74 81 993.4
20260505193350 53 225 2.0 2.0 0.00 0.00 0.74 81 993.1
20260505193048 54 225 2.0 2.0 0.00 0.00 0.74 81 993.4
20260505192747 54 225 4.0 4.0 0.00 0.00 0.74 80 993.4
20260505192448 54 202 4.0 4.0 0.00 0.00 0.74 80 993.1
20260505192150 54 337 2.0 2.0 0.00 0.00 0.74 79 992.6
20260505191848 54 0 5.0 5.0 0.00 0.00 0.72 79 992.6
20260505191547 54 337 5.0 5.0 0.00 0.00 0.70 79 992.6
20260505191251 54 45 4.0 4.0 0.00 0.00 0.70 79 992.9
20260505190947 54 22 3.0 3.0 0.00 0.00 0.66 79 992.9
20260505190647 54 0 1.0 2.0 0.00 0.00 0.64 79 993.1
20260505190347 54 0 0.0 0.0 0.00 0.00 0.62 80 993.4
20260505190048 54 0 1.0 1.0 0.00 0.00 0.59 80 993.4
20260505185750 54 0 0.0 0.0 0.00 0.00 0.59 80 993.4
20260505185448 54 0 2.0 2.0 0.00 0.00 0.58 81 993.4
20260505185147 54 337 4.0 4.0 0.00 0.00 0.56 81 993.4
20260505184848 54 0 5.0 5.0 0.00 0.00 0.53 81 993.4
20260505184547 55 315 1.0 2.0 0.00 0.00 0.52 80 993.6
20260505184248 55 337 4.0 4.0 0.00 0.00 0.50 80 993.6
20260505183950 54 315 3.0 3.0 0.00 0.00 0.50 80 993.9
20260505183647 55 22 4.0 4.0 0.00 0.00 0.48 80 993.9
20260505183348 54 0 4.0 4.0 0.00 0.00 0.48 80 993.9
20260505183047 54 337 3.0 3.0 0.00 0.00 0.45 78 993.9
20260505182750 55 0 3.0 3.0 0.00 0.00 0.45 78 993.9
20260505182148 55 337 2.0 2.0 0.00 0.00 0.44 78 994.1
20260505181848 55 315 3.0 3.0 0.00 0.00 0.44 78 994.1
20260505181547 55 315 4.0 4.0 0.00 0.00 0.42 78 993.9
20260505181247 55 315 6.0 6.0 0.00 0.00 0.39 78 993.9
20260505180948 55 315 3.0 3.0 0.00 0.00 0.38 78 993.9
20260505180347 55 337 5.0 5.0 0.00 0.00 0.34 78 993.9
20260505180047 55 337 3.0 3.0 0.00 0.00 0.32 77 993.9
20260505175748 55 315 2.0 2.0 0.00 0.00 0.32 77 993.9
20260505175447 55 135 3.0 4.0 0.00 0.00 0.29 78 993.9
20260505175148 56 180 11.0 11.0 0.00 0.00 0.24 79 993.9
20260505174548 57 202 9.0 10.0 0.00 0.00 0.08 78 993.9
20260505174248 58 157 5.0 5.0 0.00 0.00 0.02 77 993.4
20260505173948 59 180 8.0 8.0 0.00 0.00 0.00 76 993.4
20260505173647 59 337 1.0 1.0 0.00 0.00 0.00 73 993.4
20260505173048 59 0 4.0 4.0 0.00 0.00 0.00 74 992.4
20260505172747 59 22 3.0 4.0 0.00 0.00 0.00 74 992.1
20260505172447 59 337 8.0 8.0 0.00 0.00 0.00 73 991.9
20260505172147 60 67 8.0 8.0 0.00 0.00 0.00 73 991.9
20260505171847 60 337 2.0 2.0 0.00 0.00 0.00 73 991.9
20260505171547 60 22 4.0 4.0 0.00 0.00 0.00 72 991.9
20260505171250 61 0 12.0 13.0 0.00 0.00 0.00 72 991.9
20260505170947 61 0 4.0 4.0 0.00 0.00 0.00 72 991.9
20260505170647 61 0 13.0 14.0 0.00 0.00 0.00 71 991.9
20260505170347 61 22 5.0 5.0 0.00 0.00 0.00 70 991.9
20260505170048 62 337 2.0 2.0 0.00 0.00 0.00 70 991.9
20260505165148 62 67 3.0 3.0 0.00 0.00 0.00 70 991.9
20260505164847 62 337 10.0 10.0 0.00 0.00 0.00 70 991.9
20260505164246 62 0 4.0 4.0 0.00 0.00 0.00 69 991.9
20260505163947 62 45 2.0 2.0 0.00 0.00 0.00 68 991.9
20260505163647 62 22 4.0 4.0 0.00 0.00 0.00 69 991.9
20260505163348 63 45 3.0 3.0 0.00 0.00 0.00 68 992.1
20260505163048 63 22 1.0 1.0 0.00 0.00 0.00 68 992.1
20260505162447 63 22 1.0 1.0 0.00 0.00 0.00 67 992.1
20260505162147 63 90 2.0 2.0 0.00 0.00 0.00 67 992.4
20260505161848 63 337 3.0 3.0 0.00 0.00 0.00 67 992.4
20260505161548 63 337 5.0 5.0 0.00 0.00 0.00 67 992.1
20260505161247 63 22 10.0 11.0 0.00 0.00 0.00 67 992.1
20260505160950 63 22 3.0 4.0 0.00 0.00 0.00 66 992.4
20260505160647 64 67 4.0 4.0 0.00 0.00 0.00 65 992.4
20260505160347 64 67 1.0 1.0 0.00 0.00 0.00 65 992.4
20260505153347 65 337 2.0 2.0 0.00 0.00 0.00 63 992.6
20260505153048 65 90 4.0 4.0 0.00 0.00 0.00 62 992.9
20260505152748 65 45 1.0 1.0 0.00 0.00 0.00 62 992.6
20260505152447 66 45 5.0 5.0 0.00 0.00 0.00 63 992.6
20260505152148 66 90 9.0 10.0 0.00 0.00 0.00 61 992.9
20260505151848 66 67 1.0 1.0 0.00 0.00 0.00 62 992.9
20260505151548 66 90 7.0 7.0 0.00 0.00 0.00 62 992.9
20260505151247 66 45 3.0 3.0 0.00 0.00 0.00 61 992.6
20260505150947 66 337 3.0 3.0 0.00 0.00 0.00 61 992.9
20260505150648 66 337 4.0 4.0 0.00 0.00 0.00 61 992.9
20260505150350 66 337 6.0 6.0 0.00 0.00 0.00 60 992.9
20260505140647 68 337 2.0 2.0 0.00 0.00 0.00 56 993.1
20260505140348 68 67 11.0 11.0 0.00 0.00 0.00 55 993.1
20260505124847 73 90 6.0 6.0 0.00 0.00 0.00 50 993.9
20260505124550 74 90 8.0 8.0 0.00 0.00 0.00 50 993.9
20260505124247 75 90 6.0 6.0 0.00 0.00 0.00 49 993.9
20260505123948 76 90 6.0 6.0 0.00 0.00 0.00 53 993.9
20260505123647 75 45 1.0 1.0 0.00 0.00 0.00 54 993.9
20260505123347 74 22 7.0 7.0 0.00 0.00 0.00 54 993.9
20260505123050 73 0 1.0 1.0 0.00 0.00 0.00 54 993.9
20260505122748 72 90 2.0 2.0 0.00 0.00 0.00 53 993.9
20260505122448 72 90 8.0 8.0 0.00 0.00 0.00 52 993.9
20260505122147 72 90 3.0 3.0 0.00 0.00 0.00 54 993.9
20260505121850 71 45 1.0 1.0 0.00 0.00 0.00 55 993.9
20260505121547 71 22 1.0 1.0 0.00 0.00 0.00 54 993.9
20260505121248 72 0 0.0 0.0 0.00 0.00 0.00 54 993.9
20260505120947 72 90 7.0 7.0 0.00 0.00 0.00 53 994.1
20260505120648 71 45 0.0 0.0 0.00 0.00 0.00 52 994.1
20260505120350 71 67 1.0 1.0 0.00 0.00 0.00 52 994.1
20260505120047 71 67 0.0 0.0 0.00 0.00 0.00 52 994.1
20260505115747 72 0 5.0 5.0 0.00 0.00 0.00 51 994.4
20260505115447 73 337 4.0 4.0 0.00 0.00 0.00 51 994.1
20260505115148 73 337 10.0 10.0 0.00 0.00 0.00 49 994.1
20260505114847 73 45 2.0 2.0 0.00 0.00 0.00 50 994.1
20260505114550 72 22 4.0 4.0 0.00 0.00 0.00 47 993.9
20260505114247 72 0 6.0 6.0 0.00 0.00 0.00 47 994.1
20260505113947 74 0 5.0 5.0 0.00 0.00 0.00 48 994.1
20260505113647 74 270 0.0 0.0 0.00 0.00 0.00 46 994.1
20260505113348 73 315 2.0 2.0 0.00 0.00 0.00 45 994.4
20260505113047 72 22 1.0 1.0 0.00 0.00 0.00 45 994.4
20260505112748 74 0 0.0 0.0 0.00 0.00 0.00 46 994.4
20260505112447 75 337 0.0 0.0 0.00 0.00 0.00 47 994.4
20260505112148 74 270 3.0 4.0 0.00 0.00 0.00 46 994.4
20260505111847 72 337 3.0 3.0 0.00 0.00 0.00 45 994.4
20260505111550 73 337 0.0 0.0 0.00 0.00 0.00 47 994.4
20260505111247 71 0 3.0 3.0 0.00 0.00 0.00 46 994.6
20260505110947 73 0 7.0 7.0 0.00 0.00 0.00 49 994.4
20260505110648 73 225 0.0 0.0 0.00 0.00 0.00 49 994.4
20260505110350 72 180 0.0 0.0 0.00 0.00 0.00 50 994.6
20260505102147 70 315 3.0 3.0 0.00 0.00 0.00 52 995.1
20260505101848 71 225 0.0 0.0 0.00 0.00 0.00 54 995.1
20260505101547 70 90 0.0 0.0 0.00 0.00 0.00 52 995.3
20260505100947 69 337 0.0 0.0 0.00 0.00 0.00 55 995.3
20260505100647 69 270 0.0 0.0 0.00 0.00 0.00 53 995.3
20260505100348 71 45 0.0 0.0 0.00 0.00 0.00 61 995.1
20260505100047 70 135 0.0 0.0 0.00 0.00 0.00 60 995.3
20260505095448 70 22 0.0 0.0 0.00 0.00 0.00 64 995.6
20260505095147 69 90 0.0 0.0 0.00 0.00 0.00 65 995.3
20260505094847 69 315 0.0 0.0 0.00 0.00 0.00 66 995.3
20260505094547 68 0 0.0 0.0 0.00 0.00 0.00 66 995.3
20260505094248 67 0 3.0 3.0 0.00 0.00 0.00 67 995.3
20260505093947 67 0 4.0 4.0 0.00 0.00 0.00 67 995.6
20260505093647 67 22 0.0 0.0 0.00 0.00 0.00 67 995.6
20260505093347 68 0 0.0 0.0 0.00 0.00 0.00 68 995.6
20260505093047 67 337 0.0 0.0 0.00 0.00 0.00 68 995.6